owner,sensor,date,latitude,longitude,vertical_datum,sea_water_practical_salinity,qcFlag 
NERRS,ioos:station:NOAA.NERRS:rkblhwq:1,2019-07-01T00:45:00Z,26.0257,-81.7332,0.88,19.5,11111222 
NERRS,ioos:station:NOAA.NERRS:rkblhwq:1,2019-07-01T01:45:00Z,26.0257,-81.7332,1.01,21.5,11111222 
NERRS,ioos:station:NOAA.NERRS:rkblhwq:1,2019-07-01T02:45:00Z,26.0257,-81.7332,1.17,23.7,11111222 
NERRS,ioos:station:NOAA.NERRS:rkblhwq:1,2019-07-01T03:45:00Z,26.0257,-81.7332,1.36,25.1,11111222 
NERRS,ioos:station:NOAA.NERRS:rkblhwq:1,2019-07-01T04:45:00Z,26.0257,-81.7332,1.52,25.7,11111222 
NERRS,ioos:station:NOAA.NERRS:rkblhwq:1,2019-07-01T05:45:00Z,26.0257,-81.7332,1.63,26.4,11111222 
NERRS,ioos:station:NOAA.NERRS:rkblhwq:1,2019-07-01T06:45:00Z,26.0257,-81.7332,1.63,27.0,11111222 
NERRS,ioos:station:NOAA.NERRS:rkblhwq:1,2019-07-01T07:45:00Z,26.0257,-81.7332,1.54,26.0,11111222 
NERRS,ioos:station:NOAA.NERRS:rkblhwq:1,2019-07-01T08:45:00Z,26.0257,-81.7332,1.42,26.1,11111222 
NERRS,ioos:station:NOAA.NERRS:rkblhwq:1,2019-07-01T09:45:00Z,26.0257,-81.7332,1.31,26.1,11111222 
NERRS,ioos:station:NOAA.NERRS:rkblhwq:1,2019-07-01T10:45:00Z,26.0257,-81.7332,1.24,25.8,11111222 
NERRS,ioos:station:NOAA.NERRS:rkblhwq:1,2019-07-01T11:45:00Z,26.0257,-81.7332,1.27,25.2,11111222 
NERRS,ioos:station:NOAA.NERRS:rkblhwq:1,2019-07-01T12:45:00Z,26.0257,-81.7332,1.38,25.7,11111222 
NERRS,ioos:station:NOAA.NERRS:rkblhwq:1,2019-07-01T13:45:00Z,26.0257,-81.7332,1.52,25.4,11111222 
NERRS,ioos:station:NOAA.NERRS:rkblhwq:1,2019-07-01T15:45:00Z,26.0257,-81.7332,1.73,27.8,11111222 
NERRS,ioos:station:NOAA.NERRS:rkblhwq:1,2019-07-01T16:45:00Z,26.0257,-81.7332,1.77,27.9,11111222 
NERRS,ioos:station:NOAA.NERRS:rkblhwq:1,2019-07-01T17:45:00Z,26.0257,-81.7332,1.72,28.4,11111222 
NERRS,ioos:station:NOAA.NERRS:rkblhwq:1,2019-07-01T18:45:00Z,26.0257,-81.7332,1.62,26.8,11111222 
NERRS,ioos:station:NOAA.NERRS:rkblhwq:1,2019-07-01T19:45:00Z,26.0257,-81.7332,1.47,26.4,11111222 
NERRS,ioos:station:NOAA.NERRS:rkblhwq:1,2019-07-01T20:45:00Z,26.0257,-81.7332,1.3,26.3,11111222 
NERRS,ioos:station:NOAA.NERRS:rkblhwq:1,2019-07-01T21:45:00Z,26.0257,-81.7332,1.13,25.4,11111222 
NERRS,ioos:station:NOAA.NERRS:rkblhwq:1,2019-07-01T22:45:00Z,26.0257,-81.7332,0.98,23.9,11111222 
NERRS,ioos:station:NOAA.NERRS:rkblhwq:1,2019-07-01T23:45:00Z,26.0257,-81.7332,0.85,22.5,11111222 
NERRS,ioos:station:NOAA.NERRS:rkblhwq:1,2019-07-02T00:45:00Z,26.0257,-81.7332,0.77,22.0,11111222 
NERRS,ioos:station:NOAA.NERRS:rkblhwq:1,2019-07-02T01:45:00Z,26.0257,-81.7332,0.84,21.4,11111222 
NERRS,ioos:station:NOAA.NERRS:rkblhwq:1,2019-07-02T02:45:00Z,26.0257,-81.7332,0.97,22.8,11111222 
NERRS,ioos:station:NOAA.NERRS:rkblhwq:1,2019-07-02T03:45:00Z,26.0257,-81.7332,1.14,25.2,11111222 
NERRS,ioos:station:NOAA.NERRS:rkblhwq:1,2019-07-02T04:45:00Z,26.0257,-81.7332,1.32,26.1,11111222 
NERRS,ioos:station:NOAA.NERRS:rkblhwq:1,2019-07-02T05:45:00Z,26.0257,-81.7332,1.48,26.5,11111222 
NERRS,ioos:station:NOAA.NERRS:rkblhwq:1,2019-07-02T06:45:00Z,26.0257,-81.7332,1.56,27.1,11111222 
NERRS,ioos:station:NOAA.NERRS:rkblhwq:1,2019-07-02T07:45:00Z,26.0257,-81.7332,1.52,26.3,11111222 
NERRS,ioos:station:NOAA.NERRS:rkblhwq:1,2019-07-02T08:45:00Z,26.0257,-81.7332,1.41,26.5,11111222 
NERRS,ioos:station:NOAA.NERRS:rkblhwq:1,2019-07-02T09:45:00Z,26.0257,-81.7332,1.31,26.5,11111222 
NERRS,ioos:station:NOAA.NERRS:rkblhwq:1,2019-07-02T10:45:00Z,26.0257,-81.7332,1.24,26.4,11111222 
NERRS,ioos:station:NOAA.NERRS:rkblhwq:1,2019-07-02T12:45:00Z,26.0257,-81.7332,1.25,27.1,11111222 
NERRS,ioos:station:NOAA.NERRS:rkblhwq:1,2019-07-02T13:45:00Z,26.0257,-81.7332,1.35,26.0,11111222 
NERRS,ioos:station:NOAA.NERRS:rkblhwq:1,2019-07-02T14:45:00Z,26.0257,-81.7332,1.48,27.1,11111222 
NERRS,ioos:station:NOAA.NERRS:rkblhwq:1,2019-07-02T15:45:00Z,26.0257,-81.7332,1.61,28.5,11111222 
NERRS,ioos:station:NOAA.NERRS:rkblhwq:1,2019-07-02T16:45:00Z,26.0257,-81.7332,1.69,29.4,11111222 
NERRS,ioos:station:NOAA.NERRS:rkblhwq:1,2019-07-02T17:45:00Z,26.0257,-81.7332,1.73,30.1,11111222 
NERRS,ioos:station:NOAA.NERRS:rkblhwq:1,2019-07-02T18:45:00Z,26.0257,-81.7332,1.69,30.0,11111222 
NERRS,ioos:station:NOAA.NERRS:rkblhwq:1,2019-07-02T19:45:00Z,26.0257,-81.7332,1.58,28.6,11111222 
NERRS,ioos:station:NOAA.NERRS:rkblhwq:1,2019-07-02T20:45:00Z,26.0257,-81.7332,1.42,27.6,11111222 
NERRS,ioos:station:NOAA.NERRS:rkblhwq:1,2019-07-02T21:45:00Z,26.0257,-81.7332,1.23,27.0,11111222 
NERRS,ioos:station:NOAA.NERRS:rkblhwq:1,2019-07-02T22:45:00Z,26.0257,-81.7332,1.05,26.0,11111222 
NERRS,ioos:station:NOAA.NERRS:rkblhwq:1,2019-07-02T23:45:00Z,26.0257,-81.7332,0.9,24.6,11111222 
NERRS,ioos:station:NOAA.NERRS:rkblhwq:1,2019-07-03T00:45:00Z,26.0257,-81.7332,0.78,23.4,11111222 
NERRS,ioos:station:NOAA.NERRS:rkblhwq:1,2019-07-03T01:45:00Z,26.0257,-81.7332,0.72,22.5,11111222 
NERRS,ioos:station:NOAA.NERRS:rkblhwq:1,2019-07-03T02:45:00Z,26.0257,-81.7332,0.81,23.1,11111222 
NERRS,ioos:station:NOAA.NERRS:rkblhwq:1,2019-07-03T03:45:00Z,26.0257,-81.7332,0.96,24.1,11111222 
NERRS,ioos:station:NOAA.NERRS:rkblhwq:1,2019-07-03T04:45:00Z,26.0257,-81.7332,1.14,26.3,11111222 
NERRS,ioos:station:NOAA.NERRS:rkblhwq:1,2019-07-03T05:45:00Z,26.0257,-81.7332,1.33,27.2,11111222 
NERRS,ioos:station:NOAA.NERRS:rkblhwq:1,2019-07-03T06:45:00Z,26.0257,-81.7332,1.48,27.7,11111222 
NERRS,ioos:station:NOAA.NERRS:rkblhwq:1,2019-07-03T07:45:00Z,26.0257,-81.7332,1.54,28.3,11111222 
NERRS,ioos:station:NOAA.NERRS:rkblhwq:1,2019-07-03T08:45:00Z,26.0257,-81.7332,1.48,27.3,11111222 
NERRS,ioos:station:NOAA.NERRS:rkblhwq:1,2019-07-03T09:45:00Z,26.0257,-81.7332,1.38,27.0,11111222 
NERRS,ioos:station:NOAA.NERRS:rkblhwq:1,2019-07-03T10:45:00Z,26.0257,-81.7332,1.27,27.7,11111222 
NERRS,ioos:station:NOAA.NERRS:rkblhwq:1,2019-07-03T11:45:00Z,26.0257,-81.7332,1.17,26.8,11111222 
NERRS,ioos:station:NOAA.NERRS:rkblhwq:1,2019-07-03T12:45:00Z,26.0257,-81.7332,1.14,25.8,11111222 
NERRS,ioos:station:NOAA.NERRS:rkblhwq:1,2019-07-03T13:45:00Z,26.0257,-81.7332,1.23,28.2,11111222 
NERRS,ioos:station:NOAA.NERRS:rkblhwq:1,2019-07-03T14:45:00Z,26.0257,-81.7332,1.36,26.5,11111222 
NERRS,ioos:station:NOAA.NERRS:rkblhwq:1,2019-07-03T15:45:00Z,26.0257,-81.7332,1.5,28.0,11111222 
NERRS,ioos:station:NOAA.NERRS:rkblhwq:1,2019-07-03T16:45:00Z,26.0257,-81.7332,1.63,29.2,11111222 
NERRS,ioos:station:NOAA.NERRS:rkblhwq:1,2019-07-03T17:45:00Z,26.0257,-81.7332,1.71,30.1,11111222 
NERRS,ioos:station:NOAA.NERRS:rkblhwq:1,2019-07-03T18:45:00Z,26.0257,-81.7332,1.73,30.9,11111222 
NERRS,ioos:station:NOAA.NERRS:rkblhwq:1,2019-07-03T19:45:00Z,26.0257,-81.7332,1.66,29.7,11111222 
NERRS,ioos:station:NOAA.NERRS:rkblhwq:1,2019-07-03T20:45:00Z,26.0257,-81.7332,1.54,29.6,11111222 
NERRS,ioos:station:NOAA.NERRS:rkblhwq:1,2019-07-03T21:45:00Z,26.0257,-81.7332,1.39,28.3,11111222 
NERRS,ioos:station:NOAA.NERRS:rkblhwq:1,2019-07-03T22:45:00Z,26.0257,-81.7332,1.2,27.2,11111222 
NERRS,ioos:station:NOAA.NERRS:rkblhwq:1,2019-07-03T23:45:00Z,26.0257,-81.7332,1.03,27.2,11111222 
NERRS,ioos:station:NOAA.NERRS:rkblhwq:1,2019-07-04T00:45:00Z,26.0257,-81.7332,0.89,25.7,11111222 
NERRS,ioos:station:NOAA.NERRS:rkblhwq:1,2019-07-04T01:45:00Z,26.0257,-81.7332,0.77,26.4,11111222 
NERRS,ioos:station:NOAA.NERRS:rkblhwq:1,2019-07-04T02:45:00Z,26.0257,-81.7332,0.73,24.9,11111222 
NERRS,ioos:station:NOAA.NERRS:rkblhwq:1,2019-07-04T03:45:00Z,26.0257,-81.7332,0.84,26.5,11111222 
NERRS,ioos:station:NOAA.NERRS:rkblhwq:1,2019-07-04T04:45:00Z,26.0257,-81.7332,0.99,26.0,11111222 
NERRS,ioos:station:NOAA.NERRS:rkblhwq:1,2019-07-04T05:45:00Z,26.0257,-81.7332,1.17,27.5,11111222 
NERRS,ioos:station:NOAA.NERRS:rkblhwq:1,2019-07-04T06:45:00Z,26.0257,-81.7332,1.34,28.2,11111222 
NERRS,ioos:station:NOAA.NERRS:rkblhwq:1,2019-07-04T07:45:00Z,26.0257,-81.7332,1.47,28.4,11111222 
NERRS,ioos:station:NOAA.NERRS:rkblhwq:1,2019-07-04T08:45:00Z,26.0257,-81.7332,1.53,28.6,11111222 
NERRS,ioos:station:NOAA.NERRS:rkblhwq:1,2019-07-04T09:45:00Z,26.0257,-81.7332,1.44,28.4,11111222 
NERRS,ioos:station:NOAA.NERRS:rkblhwq:1,2019-07-04T10:45:00Z,26.0257,-81.7332,1.33,28.5,11111222 
NERRS,ioos:station:NOAA.NERRS:rkblhwq:1,2019-07-04T11:45:00Z,26.0257,-81.7332,1.23,28.4,11111222 
NERRS,ioos:station:NOAA.NERRS:rkblhwq:1,2019-07-04T12:45:00Z,26.0257,-81.7332,1.18,27.9,11111222 
NERRS,ioos:station:NOAA.NERRS:rkblhwq:1,2019-07-04T13:45:00Z,26.0257,-81.7332,1.19,27.5,11111222 
NERRS,ioos:station:NOAA.NERRS:rkblhwq:1,2019-07-04T14:45:00Z,26.0257,-81.7332,1.3,28.3,11111222 
NERRS,ioos:station:NOAA.NERRS:rkblhwq:1,2019-07-04T15:45:00Z,26.0257,-81.7332,1.44,28.0,11111222 
NERRS,ioos:station:NOAA.NERRS:rkblhwq:1,2019-07-04T16:45:00Z,26.0257,-81.7332,1.58,29.0,11111222 
NERRS,ioos:station:NOAA.NERRS:rkblhwq:1,2019-07-04T17:45:00Z,26.0257,-81.7332,1.69,30.2,11111222 
NERRS,ioos:station:NOAA.NERRS:rkblhwq:1,2019-07-04T18:45:00Z,26.0257,-81.7332,1.75,30.6,11111222 
NERRS,ioos:station:NOAA.NERRS:rkblhwq:1,2019-07-04T19:45:00Z,26.0257,-81.7332,1.77,31.0,11111222 
NERRS,ioos:station:NOAA.NERRS:rkblhwq:1,2019-07-04T20:45:00Z,26.0257,-81.7332,1.69,30.7,11111222 
NERRS,ioos:station:NOAA.NERRS:rkblhwq:1,2019-07-04T21:45:00Z,26.0257,-81.7332,1.59,29.7,11111222 
NERRS,ioos:station:NOAA.NERRS:rkblhwq:1,2019-07-04T22:45:00Z,26.0257,-81.7332,1.44,28.9,11111222 
NERRS,ioos:station:NOAA.NERRS:rkblhwq:1,2019-07-04T23:45:00Z,26.0257,-81.7332,1.26,28.9,11111222 
NERRS,ioos:station:NOAA.NERRS:rkblhwq:1,2019-07-05T00:45:00Z,26.0257,-81.7332,1.09,26.4,11111222 
NERRS,ioos:station:NOAA.NERRS:rkblhwq:1,2019-07-05T01:45:00Z,26.0257,-81.7332,0.94,26.3,11111222 
NERRS,ioos:station:NOAA.NERRS:rkblhwq:1,2019-07-05T02:45:00Z,26.0257,-81.7332,0.83,27.2,11111222 
NERRS,ioos:station:NOAA.NERRS:rkblhwq:1,2019-07-05T03:45:00Z,26.0257,-81.7332,0.84,25.5,11111222 
NERRS,ioos:station:NOAA.NERRS:rkblhwq:1,2019-07-05T04:45:00Z,26.0257,-81.7332,0.97,26.7,11111222 
NERRS,ioos:station:NOAA.NERRS:rkblhwq:1,2019-07-05T05:45:00Z,26.0257,-81.7332,1.14,28.0,11111222 
NERRS,ioos:station:NOAA.NERRS:rkblhwq:1,2019-07-05T06:45:00Z,26.0257,-81.7332,1.31,29.0,11111222 
NERRS,ioos:station:NOAA.NERRS:rkblhwq:1,2019-07-05T07:45:00Z,26.0257,-81.7332,1.45,29.4,11111222 
NERRS,ioos:station:NOAA.NERRS:rkblhwq:1,2019-07-05T08:45:00Z,26.0257,-81.7332,1.56,29.7,11111222 
NERRS,ioos:station:NOAA.NERRS:rkblhwq:1,2019-07-05T09:45:00Z,26.0257,-81.7332,1.56,29.2,11111222 
NERRS,ioos:station:NOAA.NERRS:rkblhwq:1,2019-07-05T10:45:00Z,26.0257,-81.7332,1.46,29.6,11111222 
NERRS,ioos:station:NOAA.NERRS:rkblhwq:1,2019-07-05T11:45:00Z,26.0257,-81.7332,1.35,29.4,11111222 
NERRS,ioos:station:NOAA.NERRS:rkblhwq:1,2019-07-05T12:45:00Z,26.0257,-81.7332,1.26,28.1,11111222 
NERRS,ioos:station:NOAA.NERRS:rkblhwq:1,2019-07-05T13:45:00Z,26.0257,-81.7332,1.19,26.9,11111222 
NERRS,ioos:station:NOAA.NERRS:rkblhwq:1,2019-07-05T14:45:00Z,26.0257,-81.7332,1.22,28.6,11111222 
NERRS,ioos:station:NOAA.NERRS:rkblhwq:1,2019-07-05T15:45:00Z,26.0257,-81.7332,1.34,28.7,11111222 
NERRS,ioos:station:NOAA.NERRS:rkblhwq:1,2019-07-05T16:45:00Z,26.0257,-81.7332,1.46,28.9,11111222 
NERRS,ioos:station:NOAA.NERRS:rkblhwq:1,2019-07-05T17:45:00Z,26.0257,-81.7332,1.6,29.5,11111222 
NERRS,ioos:station:NOAA.NERRS:rkblhwq:1,2019-07-05T18:45:00Z,26.0257,-81.7332,1.7,30.6,11111222 
NERRS,ioos:station:NOAA.NERRS:rkblhwq:1,2019-07-05T19:45:00Z,26.0257,-81.7332,1.75,31.2,11111222 
NERRS,ioos:station:NOAA.NERRS:rkblhwq:1,2019-07-05T20:45:00Z,26.0257,-81.7332,1.76,31.4,11111222 
NERRS,ioos:station:NOAA.NERRS:rkblhwq:1,2019-07-05T21:45:00Z,26.0257,-81.7332,1.67,30.6,11111222 
NERRS,ioos:station:NOAA.NERRS:rkblhwq:1,2019-07-05T22:45:00Z,26.0257,-81.7332,1.55,30.6,11111222 
NERRS,ioos:station:NOAA.NERRS:rkblhwq:1,2019-07-05T23:45:00Z,26.0257,-81.7332,1.4,30.3,11111222 
NERRS,ioos:station:NOAA.NERRS:rkblhwq:1,2019-07-06T00:45:00Z,26.0257,-81.7332,1.22,28.7,11111222 
NERRS,ioos:station:NOAA.NERRS:rkblhwq:1,2019-07-06T01:45:00Z,26.0257,-81.7332,1.06,28.1,11111222 
NERRS,ioos:station:NOAA.NERRS:rkblhwq:1,2019-07-06T02:45:00Z,26.0257,-81.7332,0.93,27.6,11111222 
NERRS,ioos:station:NOAA.NERRS:rkblhwq:1,2019-07-06T03:45:00Z,26.0257,-81.7332,0.82,26.4,11111222 
NERRS,ioos:station:NOAA.NERRS:rkblhwq:1,2019-07-06T04:45:00Z,26.0257,-81.7332,0.86,25.4,11111222 
NERRS,ioos:station:NOAA.NERRS:rkblhwq:1,2019-07-06T05:45:00Z,26.0257,-81.7332,1.0,27.3,11111222 
NERRS,ioos:station:NOAA.NERRS:rkblhwq:1,2019-07-06T06:45:00Z,26.0257,-81.7332,1.15,28.5,11111222 
NERRS,ioos:station:NOAA.NERRS:rkblhwq:1,2019-07-06T07:45:00Z,26.0257,-81.7332,1.33,29.3,11111222 
NERRS,ioos:station:NOAA.NERRS:rkblhwq:1,2019-07-06T08:45:00Z,26.0257,-81.7332,1.47,29.7,11111222 
NERRS,ioos:station:NOAA.NERRS:rkblhwq:1,2019-07-06T09:45:00Z,26.0257,-81.7332,1.56,29.9,11111222 
NERRS,ioos:station:NOAA.NERRS:rkblhwq:1,2019-07-06T10:45:00Z,26.0257,-81.7332,1.51,29.1,11111222 
NERRS,ioos:station:NOAA.NERRS:rkblhwq:1,2019-07-06T11:45:00Z,26.0257,-81.7332,1.4,29.3,11111222 
NERRS,ioos:station:NOAA.NERRS:rkblhwq:1,2019-07-06T12:45:00Z,26.0257,-81.7332,1.29,29.1,11111222 
NERRS,ioos:station:NOAA.NERRS:rkblhwq:1,2019-07-06T13:45:00Z,26.0257,-81.7332,1.19,28.8,11111222 
NERRS,ioos:station:NOAA.NERRS:rkblhwq:1,2019-07-06T14:45:00Z,26.0257,-81.7332,1.14,29.2,11111222 
NERRS,ioos:station:NOAA.NERRS:rkblhwq:1,2019-07-06T15:45:00Z,26.0257,-81.7332,1.19,28.0,11111222 
NERRS,ioos:station:NOAA.NERRS:rkblhwq:1,2019-07-06T16:45:00Z,26.0257,-81.7332,1.29,28.7,11111222 
NERRS,ioos:station:NOAA.NERRS:rkblhwq:1,2019-07-06T17:45:00Z,26.0257,-81.7332,1.43,29.3,11111222 
NERRS,ioos:station:NOAA.NERRS:rkblhwq:1,2019-07-06T18:45:00Z,26.0257,-81.7332,1.53,30.0,11111222 
NERRS,ioos:station:NOAA.NERRS:rkblhwq:1,2019-07-06T19:45:00Z,26.0257,-81.7332,1.61,30.3,11111222 
NERRS,ioos:station:NOAA.NERRS:rkblhwq:1,2019-07-06T20:45:00Z,26.0257,-81.7332,1.68,30.7,11111222 
NERRS,ioos:station:NOAA.NERRS:rkblhwq:1,2019-07-06T21:45:00Z,26.0257,-81.7332,1.69,30.5,11111222 
NERRS,ioos:station:NOAA.NERRS:rkblhwq:1,2019-07-06T22:45:00Z,26.0257,-81.7332,1.61,30.2,11111222 
NERRS,ioos:station:NOAA.NERRS:rkblhwq:1,2019-07-06T23:45:00Z,26.0257,-81.7332,1.48,30.1,11111222 
NERRS,ioos:station:NOAA.NERRS:rkblhwq:1,2019-07-07T00:45:00Z,26.0257,-81.7332,1.32,29.9,11111222 
NERRS,ioos:station:NOAA.NERRS:rkblhwq:1,2019-07-07T01:45:00Z,26.0257,-81.7332,1.15,28.1,11111222 
NERRS,ioos:station:NOAA.NERRS:rkblhwq:1,2019-07-07T02:45:00Z,26.0257,-81.7332,1.01,28.3,11111222 
NERRS,ioos:station:NOAA.NERRS:rkblhwq:1,2019-07-07T03:45:00Z,26.0257,-81.7332,0.88,27.9,11111222 
NERRS,ioos:station:NOAA.NERRS:rkblhwq:1,2019-07-07T04:45:00Z,26.0257,-81.7332,0.84,28.7,11111222 
NERRS,ioos:station:NOAA.NERRS:rkblhwq:1,2019-07-07T05:45:00Z,26.0257,-81.7332,0.93,27.8,11111222 
NERRS,ioos:station:NOAA.NERRS:rkblhwq:1,2019-07-07T06:45:00Z,26.0257,-81.7332,1.07,28.2,11111222 
NERRS,ioos:station:NOAA.NERRS:rkblhwq:1,2019-07-07T07:45:00Z,26.0257,-81.7332,1.23,29.1,11111222 
NERRS,ioos:station:NOAA.NERRS:rkblhwq:1,2019-07-07T08:45:00Z,26.0257,-81.7332,1.38,29.8,11111222 
NERRS,ioos:station:NOAA.NERRS:rkblhwq:1,2019-07-07T09:45:00Z,26.0257,-81.7332,1.52,30.0,11111222 
NERRS,ioos:station:NOAA.NERRS:rkblhwq:1,2019-07-07T10:45:00Z,26.0257,-81.7332,1.58,30.5,11111222 
NERRS,ioos:station:NOAA.NERRS:rkblhwq:1,2019-07-07T11:45:00Z,26.0257,-81.7332,1.5,30.1,11111222 
NERRS,ioos:station:NOAA.NERRS:rkblhwq:1,2019-07-07T12:45:00Z,26.0257,-81.7332,1.39,29.9,11111222 
NERRS,ioos:station:NOAA.NERRS:rkblhwq:1,2019-07-07T13:45:00Z,26.0257,-81.7332,1.28,29.9,11111222 
NERRS,ioos:station:NOAA.NERRS:rkblhwq:1,2019-07-07T14:45:00Z,26.0257,-81.7332,1.18,29.9,11111222 
NERRS,ioos:station:NOAA.NERRS:rkblhwq:1,2019-07-07T15:45:00Z,26.0257,-81.7332,1.12,29.9,11111222 
NERRS,ioos:station:NOAA.NERRS:rkblhwq:1,2019-07-07T16:45:00Z,26.0257,-81.7332,1.14,29.5,11111222 
NERRS,ioos:station:NOAA.NERRS:rkblhwq:1,2019-07-07T17:45:00Z,26.0257,-81.7332,1.24,29.0,11111222 
NERRS,ioos:station:NOAA.NERRS:rkblhwq:1,2019-07-07T18:45:00Z,26.0257,-81.7332,1.38,30.0,11111222 
NERRS,ioos:station:NOAA.NERRS:rkblhwq:1,2019-07-07T19:45:00Z,26.0257,-81.7332,1.51,30.2,11111222 
NERRS,ioos:station:NOAA.NERRS:rkblhwq:1,2019-07-07T20:45:00Z,26.0257,-81.7332,1.57,30.6,11111222 
NERRS,ioos:station:NOAA.NERRS:rkblhwq:1,2019-07-07T21:45:00Z,26.0257,-81.7332,1.61,31.0,11111222 
NERRS,ioos:station:NOAA.NERRS:rkblhwq:1,2019-07-07T22:45:00Z,26.0257,-81.7332,1.56,30.6,11111222 
NERRS,ioos:station:NOAA.NERRS:rkblhwq:1,2019-07-07T23:45:00Z,26.0257,-81.7332,1.49,30.4,11111222 
NERRS,ioos:station:NOAA.NERRS:rkblhwq:1,2019-07-08T00:45:00Z,26.0257,-81.7332,1.38,30.0,11111222 
NERRS,ioos:station:NOAA.NERRS:rkblhwq:1,2019-07-08T01:45:00Z,26.0257,-81.7332,1.24,29.2,11111222 
NERRS,ioos:station:NOAA.NERRS:rkblhwq:1,2019-07-08T02:45:00Z,26.0257,-81.7332,1.09,29.6,11111222 
NERRS,ioos:station:NOAA.NERRS:rkblhwq:1,2019-07-08T03:45:00Z,26.0257,-81.7332,0.97,29.4,11111222 
NERRS,ioos:station:NOAA.NERRS:rkblhwq:1,2019-07-08T04:45:00Z,26.0257,-81.7332,0.87,29.0,11111222 
NERRS,ioos:station:NOAA.NERRS:rkblhwq:1,2019-07-08T05:45:00Z,26.0257,-81.7332,0.88,28.1,11111222 
NERRS,ioos:station:NOAA.NERRS:rkblhwq:1,2019-07-08T06:45:00Z,26.0257,-81.7332,0.98,28.3,11111222 
NERRS,ioos:station:NOAA.NERRS:rkblhwq:1,2019-07-08T07:45:00Z,26.0257,-81.7332,1.13,29.0,11111222 
NERRS,ioos:station:NOAA.NERRS:rkblhwq:1,2019-07-08T08:45:00Z,26.0257,-81.7332,1.3,29.6,11111222 
NERRS,ioos:station:NOAA.NERRS:rkblhwq:1,2019-07-08T09:45:00Z,26.0257,-81.7332,1.45,30.0,11111222 
NERRS,ioos:station:NOAA.NERRS:rkblhwq:1,2019-07-08T10:45:00Z,26.0257,-81.7332,1.54,30.2,11111222 
NERRS,ioos:station:NOAA.NERRS:rkblhwq:1,2019-07-08T11:45:00Z,26.0257,-81.7332,1.56,30.4,11111222 
NERRS,ioos:station:NOAA.NERRS:rkblhwq:1,2019-07-08T12:45:00Z,26.0257,-81.7332,1.49,30.2,11111222 
NERRS,ioos:station:NOAA.NERRS:rkblhwq:1,2019-07-08T13:45:00Z,26.0257,-81.7332,1.41,30.0,11111222 
NERRS,ioos:station:NOAA.NERRS:rkblhwq:1,2019-07-08T14:45:00Z,26.0257,-81.7332,1.33,27.9,11111222 
NERRS,ioos:station:NOAA.NERRS:rkblhwq:1,2019-07-08T15:45:00Z,26.0257,-81.7332,1.21,27.8,11111222 
NERRS,ioos:station:NOAA.NERRS:rkblhwq:1,2019-07-08T16:45:00Z,26.0257,-81.7332,1.1,27.8,11111222 
NERRS,ioos:station:NOAA.NERRS:rkblhwq:1,2019-07-08T17:45:00Z,26.0257,-81.7332,1.05,27.0,11111222 
NERRS,ioos:station:NOAA.NERRS:rkblhwq:1,2019-07-08T18:45:00Z,26.0257,-81.7332,1.11,25.5,11111222 
NERRS,ioos:station:NOAA.NERRS:rkblhwq:1,2019-07-08T19:45:00Z,26.0257,-81.7332,1.24,26.7,11111222 
NERRS,ioos:station:NOAA.NERRS:rkblhwq:1,2019-07-08T20:45:00Z,26.0257,-81.7332,1.36,27.7,11111222 
NERRS,ioos:station:NOAA.NERRS:rkblhwq:1,2019-07-08T21:45:00Z,26.0257,-81.7332,1.45,28.6,11111222 
NERRS,ioos:station:NOAA.NERRS:rkblhwq:1,2019-07-08T22:45:00Z,26.0257,-81.7332,1.51,28.9,11111222 
NERRS,ioos:station:NOAA.NERRS:rkblhwq:1,2019-07-08T23:45:00Z,26.0257,-81.7332,1.51,29.1,11111222 
NERRS,ioos:station:NOAA.NERRS:rkblhwq:1,2019-07-09T00:45:00Z,26.0257,-81.7332,1.43,28.1,11111222 
NERRS,ioos:station:NOAA.NERRS:rkblhwq:1,2019-07-09T01:45:00Z,26.0257,-81.7332,1.33,28.4,11111222 
NERRS,ioos:station:NOAA.NERRS:rkblhwq:1,2019-07-09T02:45:00Z,26.0257,-81.7332,1.22,27.9,11111222 
NERRS,ioos:station:NOAA.NERRS:rkblhwq:1,2019-07-09T03:45:00Z,26.0257,-81.7332,1.11,27.7,11111222 
NERRS,ioos:station:NOAA.NERRS:rkblhwq:1,2019-07-09T04:45:00Z,26.0257,-81.7332,1.02,27.4,11111222 
NERRS,ioos:station:NOAA.NERRS:rkblhwq:1,2019-07-09T05:45:00Z,26.0257,-81.7332,0.95,27.5,11111222 
NERRS,ioos:station:NOAA.NERRS:rkblhwq:1,2019-07-09T06:45:00Z,26.0257,-81.7332,1.02,22.8,11111222 
NERRS,ioos:station:NOAA.NERRS:rkblhwq:1,2019-07-09T07:45:00Z,26.0257,-81.7332,1.16,24.9,11111222 
NERRS,ioos:station:NOAA.NERRS:rkblhwq:1,2019-07-09T08:45:00Z,26.0257,-81.7332,1.31,26.4,11111222 
NERRS,ioos:station:NOAA.NERRS:rkblhwq:1,2019-07-09T09:45:00Z,26.0257,-81.7332,1.47,27.2,11111222 
NERRS,ioos:station:NOAA.NERRS:rkblhwq:1,2019-07-09T10:45:00Z,26.0257,-81.7332,1.58,28.0,11111222 
NERRS,ioos:station:NOAA.NERRS:rkblhwq:1,2019-07-09T11:45:00Z,26.0257,-81.7332,1.64,28.4,11111222 
NERRS,ioos:station:NOAA.NERRS:rkblhwq:1,2019-07-09T12:45:00Z,26.0257,-81.7332,1.64,28.0,11111222 
NERRS,ioos:station:NOAA.NERRS:rkblhwq:1,2019-07-09T13:45:00Z,26.0257,-81.7332,1.57,28.2,11111222 
NERRS,ioos:station:NOAA.NERRS:rkblhwq:1,2019-07-09T14:45:00Z,26.0257,-81.7332,1.49,27.5,11111222 
NERRS,ioos:station:NOAA.NERRS:rkblhwq:1,2019-07-09T15:45:00Z,26.0257,-81.7332,1.37,27.2,11111222 
NERRS,ioos:station:NOAA.NERRS:rkblhwq:1,2019-07-09T16:45:00Z,26.0257,-81.7332,1.25,27.1,11111222 
NERRS,ioos:station:NOAA.NERRS:rkblhwq:1,2019-07-09T17:45:00Z,26.0257,-81.7332,1.14,27.0,11111222 
NERRS,ioos:station:NOAA.NERRS:rkblhwq:1,2019-07-09T18:45:00Z,26.0257,-81.7332,1.06,26.7,11111222 
NERRS,ioos:station:NOAA.NERRS:rkblhwq:1,2019-07-09T19:45:00Z,26.0257,-81.7332,1.11,25.2,11111222 
NERRS,ioos:station:NOAA.NERRS:rkblhwq:1,2019-07-09T20:45:00Z,26.0257,-81.7332,1.2,25.9,11111222 
NERRS,ioos:station:NOAA.NERRS:rkblhwq:1,2019-07-09T21:45:00Z,26.0257,-81.7332,1.32,26.1,11111222 
NERRS,ioos:station:NOAA.NERRS:rkblhwq:1,2019-07-09T22:45:00Z,26.0257,-81.7332,1.43,27.3,11111222 
NERRS,ioos:station:NOAA.NERRS:rkblhwq:1,2019-07-09T23:45:00Z,26.0257,-81.7332,1.51,27.7,11111222 
NERRS,ioos:station:NOAA.NERRS:rkblhwq:1,2019-07-10T00:45:00Z,26.0257,-81.7332,1.55,27.8,11111222 
NERRS,ioos:station:NOAA.NERRS:rkblhwq:1,2019-07-10T01:45:00Z,26.0257,-81.7332,1.48,26.5,11111222 
NERRS,ioos:station:NOAA.NERRS:rkblhwq:1,2019-07-10T02:45:00Z,26.0257,-81.7332,1.38,27.4,11111222 
NERRS,ioos:station:NOAA.NERRS:rkblhwq:1,2019-07-10T03:45:00Z,26.0257,-81.7332,1.28,27.5,11111222 
NERRS,ioos:station:NOAA.NERRS:rkblhwq:1,2019-07-10T04:45:00Z,26.0257,-81.7332,1.15,27.2,11111222 
NERRS,ioos:station:NOAA.NERRS:rkblhwq:1,2019-07-10T05:45:00Z,26.0257,-81.7332,1.05,26.6,11111222 
NERRS,ioos:station:NOAA.NERRS:rkblhwq:1,2019-07-10T06:45:00Z,26.0257,-81.7332,0.98,25.2,11111222 
NERRS,ioos:station:NOAA.NERRS:rkblhwq:1,2019-07-10T07:45:00Z,26.0257,-81.7332,1.04,26.2,11111222 
NERRS,ioos:station:NOAA.NERRS:rkblhwq:1,2019-07-10T08:45:00Z,26.0257,-81.7332,1.16,24.7,11111222 
NERRS,ioos:station:NOAA.NERRS:rkblhwq:1,2019-07-10T09:45:00Z,26.0257,-81.7332,1.3,26.1,11111222 
NERRS,ioos:station:NOAA.NERRS:rkblhwq:1,2019-07-10T10:45:00Z,26.0257,-81.7332,1.44,26.5,11111222 
NERRS,ioos:station:NOAA.NERRS:rkblhwq:1,2019-07-10T11:45:00Z,26.0257,-81.7332,1.58,27.2,11111222 
NERRS,ioos:station:NOAA.NERRS:rkblhwq:1,2019-07-10T12:45:00Z,26.0257,-81.7332,1.65,28.0,11111222 
NERRS,ioos:station:NOAA.NERRS:rkblhwq:1,2019-07-10T13:45:00Z,26.0257,-81.7332,1.63,27.7,11111222 
NERRS,ioos:station:NOAA.NERRS:rkblhwq:1,2019-07-10T14:45:00Z,26.0257,-81.7332,1.53,27.6,11111222 
NERRS,ioos:station:NOAA.NERRS:rkblhwq:1,2019-07-10T15:45:00Z,26.0257,-81.7332,1.4,26.5,11111222 
NERRS,ioos:station:NOAA.NERRS:rkblhwq:1,2019-07-10T16:45:00Z,26.0257,-81.7332,1.27,26.4,11111222 
NERRS,ioos:station:NOAA.NERRS:rkblhwq:1,2019-07-10T17:45:00Z,26.0257,-81.7332,1.14,26.4,11111222 
NERRS,ioos:station:NOAA.NERRS:rkblhwq:1,2019-07-10T18:45:00Z,26.0257,-81.7332,1.02,25.9,11111222 
NERRS,ioos:station:NOAA.NERRS:rkblhwq:1,2019-07-10T19:45:00Z,26.0257,-81.7332,0.93,23.7,11111222 
NERRS,ioos:station:NOAA.NERRS:rkblhwq:1,2019-07-10T20:45:00Z,26.0257,-81.7332,0.95,24.5,11111222 
NERRS,ioos:station:NOAA.NERRS:rkblhwq:1,2019-07-10T21:45:00Z,26.0257,-81.7332,1.03,25.0,11111222 
NERRS,ioos:station:NOAA.NERRS:rkblhwq:1,2019-07-10T22:45:00Z,26.0257,-81.7332,1.15,25.7,11111222 
NERRS,ioos:station:NOAA.NERRS:rkblhwq:1,2019-07-10T23:45:00Z,26.0257,-81.7332,1.27,26.6,11111222 
NERRS,ioos:station:NOAA.NERRS:rkblhwq:1,2019-07-11T00:45:00Z,26.0257,-81.7332,1.39,27.1,11111222 
NERRS,ioos:station:NOAA.NERRS:rkblhwq:1,2019-07-11T01:45:00Z,26.0257,-81.7332,1.47,27.4,11111222 
NERRS,ioos:station:NOAA.NERRS:rkblhwq:1,2019-07-11T02:45:00Z,26.0257,-81.7332,1.46,27.3,11111222 
NERRS,ioos:station:NOAA.NERRS:rkblhwq:1,2019-07-11T03:45:00Z,26.0257,-81.7332,1.39,27.0,11111222 
NERRS,ioos:station:NOAA.NERRS:rkblhwq:1,2019-07-11T04:45:00Z,26.0257,-81.7332,1.28,27.3,11111222 
NERRS,ioos:station:NOAA.NERRS:rkblhwq:1,2019-07-11T05:45:00Z,26.0257,-81.7332,1.19,26.8,11111222 